Location: Robertsbridge
(50.9833°N, 0.4667°E)
Time: 05:33:32
(UTC+00:00)

Daily predictions for brighter satellites

Satellite Brightness Start Highest point End
(mag) Time Altitude Azimuth Time Altitude Azimuth Time Altitude Azimuth
Landsat 5 4.3 00:01:43 10° N 00:05:16 37° WNW 00:07:02 23° WSW
EO 1 Delta rocket 3.9 00:04:08 34° S 00:06:09 73° W 00:11:19 10° NNW
Cosmos 2227 Rocket 2.2 00:00:46 10° NNW 00:06:28 76° WSW 00:09:27 29° SSE
Gbstr 26 Del rocket 4.3 00:01:15 10° WNW 00:06:35 42° SSW 00:09:37 26° SSE
Cosmos 468 4.5 00:03:28 10° NNW 00:08:50 90° N 00:11:38 29° SSE
GEOS 3 Rocket 3.6 00:08:34 10° NE 00:13:52 90° NNW 00:17:32 21° SW
Cosmos 1441 Rocket 2.8 00:20:22 52° SSW 00:21:09 87° WNW 00:24:38 10° NNE
Meteor 2-2 Rocket 4.2 00:19:14 10° NNW 00:24:54 88° ENE 00:28:00 28° SSE
Cosmos 2221 4.1 00:21:53 10° N 00:25:38 29° ENE 00:28:33 14° SE
Cosmos 1315 Rocket 2.9 00:25:29 10° NNW 00:29:15 56° W 00:30:17 41° SSW
Cosmos 1655 Rocket 4.2 00:25:42 26° SSW 00:29:31 67° WNW 00:35:53 10° N
Okean 1 4.3 00:26:43 10° N 00:30:13 36° ENE 00:32:02 22° SE
Cosmos 1125 Rocket 3.5 00:30:24 32° S 00:32:53 72° ESE 00:38:08 10° NNE
Meteor 1-26 Rocket 4.1 00:28:25 10° NNW 00:33:50 88° W 00:36:44 29° S
Geosat 4.0 00:29:09 10° NNE 00:34:11 73° ESE 00:36:36 31° SSW
Cosmos 1932 4.4 00:31:36 26° SSW 00:35:15 74° SE 00:41:39 10° NE
Cosmos 1933 4.3 00:32:12 10° NNW 00:35:42 33° W 00:36:43 28° WSW
Nadezhda 1 Rocket 4.4 00:30:16 10° N 00:36:26 59° ENE 00:40:50 19° SSE
CENTAUR R/B 4.4 00:38:19 10° ESE 00:40:31 12° E 00:42:53 10° ENE
Cosmos 2058 Rocket 3.5 00:38:06 10° NNW 00:42:24 50° W 00:44:04 32° SSW
H-2A R/B 2.7 00:41:17 27° SE 00:43:11 57° ENE 00:47:03 10° N
BlueWalker 3 4.2 00:42:19 10° W 00:42:46 12° W 00:42:46 12° W
Cosmos 614 Rocket 3.9 00:41:15 10° NNW 00:46:18 73° WSW 00:48:55 29° S
ATLAS 5 CENTAUR R/B 3.1 00:45:32 10° NNW 00:49:25 38° NE 00:54:08 10° ESE
BREEZE-M DEB (TANK) 3.4 00:48:36 10° W 00:50:49 26° WSW 00:50:49 26° WSW
CZ-4C R/B 4.4 00:48:40 10° WNW 00:53:09 27° N 00:58:41 10° NE
Cosmos 2263 Rocket 2.2 00:50:01 10° NW 00:55:35 61° WSW 00:58:41 26° S
CZ-2C R/B 2.8 00:56:50 10° NNE 01:01:38 78° ESE 01:04:01 29° S
Cosmos 2082 3.6 00:56:32 10° NNW 01:02:15 82° WSW 01:06:25 19° SSE
Cosmos 192 4.3 01:00:29 30° S 01:02:54 75° ESE 01:07:50 10° NNE
USA 32 4.1 01:00:07 27° S 01:03:02 75° E 01:08:16 10° N
Cosmos 2369 3.9 01:01:32 27° S 01:04:33 58° ESE 01:10:06 10° NE
Cosmos 1602 Rocket 3.6 01:07:34 30° S 01:09:39 70° E 01:13:59 10° NNE
Cosmos 2298 Rocket 4.2 01:07:44 27° S 01:10:36 62° ESE 01:15:51 10° NNE
Cosmos 1758 Rocket 3.5 01:09:37 31° SSW 01:11:40 80° W 01:16:09 10° N
Cosmos 1626 Rocket 3.7 01:11:27 30° SSW 01:13:29 62° WNW 01:17:52 10° N
Cosmos 2297 Rocket 4.2 01:14:57 10° WNW 01:16:40 11° W 01:18:18 10° WSW
SL-16 R/B 3.5 01:13:38 16° SSE 01:17:09 30° ESE 01:22:00 10° NE
Cosmos 2219 3.4 01:12:05 10° NW 01:17:35 51° WSW 01:20:47 24° S
USA 290 3.0 01:16:10 10° NW 01:19:13 35° WSW 01:19:33 34° WSW
Cosmos 2333 Rocket 4.0 01:15:34 10° SSE 01:19:37 20° E 01:23:41 10° NE
BREEZE M DEB (TANK) 2.0 01:21:29 40° WSW 01:22:09 58° S 01:25:47 10° ESE
Spot 2 3.8 01:20:18 26° SSE 01:22:31 86° WSW 01:26:32 10° NNW
BREEZE-M DEB 4.5 01:04:19 10° W 01:22:45 81° S 01:27:09 10° E
ATLAS 2AS CENTAUR R/B 2.8 01:17:28 10° NW 01:23:59 51° WSW 01:29:12 16° SSE
Cosmos 921 Rocket 3.1 01:24:31 10° NNW 01:28:53 60° WSW 01:31:10 26° S
Cosmos 1980 Rocket 2.4 01:25:56 21° SW 01:29:42 65° WNW 01:35:20 10° NNE
Cosmos 1743 3.7 01:28:38 19° SE 01:30:27 31° E 01:33:28 10° NNE
USA 215 4.3 01:30:25 21° SSW 01:32:08 23° SW 01:37:12 10° WNW
NPP 4.3 01:28:19 10° NNE 01:33:34 49° E 01:37:31 17° S
Cosmos 1697 Rocket 4.0 01:30:08 10° WSW 01:35:12 35° NW 01:40:24 10° NNE
Lacrosse 5 rocket 2.3 01:34:07 10° WNW 01:37:12 25° SW 01:37:12 25° SW
Cosmos 2151 2.8 01:35:22 27° S 01:37:35 90° W 01:41:45 10° N
Cosmos 1140 Rocket 3.9 01:35:37 10° NNW 01:40:45 62° ENE 01:45:52 10° SE
CZ-2C R/B 3.4 01:37:53 22° SSW 01:40:51 38° W 01:46:05 10° NNW
Resurs 1-4 Rocket 3.5 01:38:47 10° NNE 01:43:33 32° E 01:48:17 10° SSE
GENESIS II 3.6 01:44:58 32° WSW 01:45:56 57° NW 01:48:39 10° NE
Cosmos 1076 Rocket 4.1 01:46:03 17° SSE 01:49:07 50° E 01:53:14 10° NNE
Cosmos 2227 Rocket 4.0 01:46:44 10° WNW 01:49:31 14° W 01:51:13 12° WSW
Landsat 4 4.0 01:49:58 27° WSW 01:50:18 28° W 01:52:47 10° NW
Cosmos 1844 Rocket 2.7 01:45:54 10° NNW 01:51:35 85° ENE 01:57:11 10° SSE
Cosmos 1238 Rocket 3.6 01:48:33 10° NNW 01:53:38 55° W 01:56:48 21° SSW
Cosmos 407 Rocket 4.5 01:50:30 10° NNW 01:55:36 49° ENE 02:00:43 10° SE
Cosmos 2227 4.2 01:50:00 10° NNW 01:55:41 74° WSW 02:01:23 10° SSE
Cosmos 1844 3.8 01:50:10 10° NNW 01:55:54 84° ENE 02:01:40 10° SSE
CZ-2D R/B 3.2 01:52:20 10° NNE 01:57:11 37° E 02:01:59 10° SSE
IDEFIX/ARIANE 42P 2.5 01:53:07 10° NNE 01:58:20 88° ESE 02:02:09 19° SSW
Meteor 1-19 Rocket 4.2 01:54:21 10° NNW 01:59:49 68° W 02:04:33 15° S
H-2A R/B 2.7 01:57:54 10° NNE 02:02:03 50° E 02:05:29 15° S
Cosmos 2237 4.2 01:58:13 20° SSW 02:02:20 86° ESE 02:08:04 10° NNE
Cosmos 2221 3.4 01:58:56 10° NNW 02:02:45 33° W 02:04:56 20° SW
Cosmos 1953 Rocket 3.6 02:04:16 18° S 02:07:28 81° E 02:11:48 10° NNE
Cosmos 2360 Rocket 3.3 02:03:04 11° S 02:07:50 37° ESE 02:12:57 10° NE
SeaSat 1 2.4 02:03:44 10° SSE 02:08:38 90° WSW 02:13:35 10° NNW
Cosmos 1346 Rocket 2.6 02:09:59 21° SSW 02:12:16 71° WNW 02:16:00 10° N
Cosmos 2278 3.8 02:08:06 17° SSW 02:12:28 71° ESE 02:18:06 10° NNE
Cosmos 1733 2.8 02:14:22 18° S 02:16:22 62° E 02:19:20 10° NNE
H-2A R/B 4.2 02:16:38 13° WSW 02:17:53 15° W 02:20:15 10° NW
Cosmos 1269 Rocket 4.2 02:13:00 10° NNW 02:18:11 55° WSW 02:23:19 10° S
Molniya-1 4.2 02:19:20 18° SSW 02:21:56 71° SE 02:30:38 10° NE
Cosmos 2219 Rocket 3.7 02:17:55 10° SSE 02:22:38 28° ESE 02:27:20 10° NE
H-2A R/B 4.3 02:21:20 10° NE 02:24:43 18° E 02:28:03 10° SE
Cosmos 1825 Rocket 4.2 02:22:59 17° SW 02:26:02 42° WNW 02:30:14 10° N
Cosmos 2074 Rocket 4.3 02:19:54 10° S 02:26:03 68° E 02:32:15 10° NNE
CENTAUR R/B 2.7 02:24:36 15° SSW 02:29:18 63° SE 02:36:18 10° NE
Cosmos 2322 Rocket 2.5 02:24:50 13° S 02:29:49 60° ESE 02:35:22 10° NE
ADEOS II 2.8 02:25:01 10° NNE 02:30:08 51° E 02:35:13 10° S
ATLAS 5 CENTAUR R/B 2.0 02:28:03 10° NW 02:32:23 50° SW 02:37:41 10° SSE
ALOS 2.9 02:28:12 10° NNE 02:32:40 50° E 02:37:07 10° S
MOZ.5/SAFIR/RUBIN 5/SL-8 4.4 02:30:29 14° SSW 02:34:05 38° W 02:38:29 10° NNW
Meteor 1-18 Rocket 4.4 02:32:30 10° N 02:38:05 73° ENE 02:43:38 10° SSE
Cosmos 2263 Rocket 4.2 02:37:15 10° W 02:38:18 11° W 02:39:22 10° WSW
Cosmos 2251 Rocket 4.0 02:33:03 10° NNW 02:38:21 66° ENE 02:43:34 10° SE
Meteor 1-25 Rocket 4.5 02:36:57 13° SSW 02:41:55 60° WNW 02:47:36 10° N
NOSS 3-2 (A) 4.2 02:37:47 10° S 02:42:25 37° ESE 02:47:51 10° NE
DMSP B5D2-2 4.4 02:38:40 10° SSE 02:43:52 73° ENE 02:49:05 10° NNW
Envisat 3.6 02:38:54 10° NNE 02:43:55 56° E 02:48:53 10° S
SL-23 DEB 3.3 02:42:36 11° WSW 02:45:39 78° SSE 02:49:21 10° E
Meteor 1-27 Rocket 4.3 02:40:05 10° NNW 02:45:42 45° W 02:51:15 10° SSW
SAR-Lupe-3 4.3 02:44:33 10° SSE 02:47:29 71° ENE 02:50:27 10° N
MSX 4.4 02:42:45 10° N 02:48:13 46° WNW 02:53:28 11° SW
Cosmos 1190 Rocket 4.4 02:46:52 10° NNW 02:52:03 67° ENE 02:57:12 10° SE
Cosmos 2181 Rocket 4.3 02:46:52 10° NNW 02:52:42 47° W 02:58:29 10° SSW
USA 276 2.3 02:51:56 14° SW 02:53:59 38° SSE 02:56:22 10° E
NOAA 11 4.3 02:48:32 10° NNE 02:54:01 79° ESE 02:59:27 10° SSW
FENGYUN 3A 4.0 02:49:40 10° N 02:54:56 54° WNW 03:00:12 10° SW
SL-16 R/B 2.9 02:50:20 10° SSE 02:56:34 75° ENE 03:02:51 10° NNW
Cosmos 1842 Rocket 4.4 02:55:45 10° NNW 02:59:43 34° W 03:03:39 10° SSW
SL-16 R/B 2.6 02:55:28 11° SW 03:00:57 57° NW 03:06:33 10° NNE
Uosat 12 SS-18 rocket 4.3 02:57:37 11° SSW 03:01:49 72° SE 03:06:43 10° NE
Cosmos 1707 3.3 02:59:40 10° NNW 03:02:35 29° W 03:05:28 10° SSW
Cosmos 2333 Rocket 2.3 02:57:35 10° SSW 03:03:16 80° WNW 03:08:59 10° NNE
Meteor 2-10 4.4 02:58:12 10° S 03:03:19 62° E 03:08:20 10° NNE
Cosmos 1805 4.1 03:00:07 10° SSE 03:03:22 41° E 03:06:40 10° NNE
Cosmos 1743 4.2 03:02:07 10° WSW 03:04:35 19° WNW 03:07:03 10° NNW
Cosmos 44 Rocket 3.5 03:03:50 10° SW 03:08:28 62° NW 03:13:14 10° NE
Meteor 2-4 Rocket 4.0 03:03:40 10° NNW 03:08:44 44° W 03:13:47 10° SSW
ATLAS 2AS CENTAUR R/B 4.4 03:12:12 10° W 03:13:18 10° WSW 03:14:24 10° WSW
Cosmos 1980 Rocket 4.2 03:10:54 10° WNW 03:14:50 19° NNW 03:18:46 10° NNE
Cosmos 1066 Rocket 4.2 03:11:13 10° NNW 03:16:30 58° W 03:21:43 10° S
CZ-2C R/B 4.2 03:15:57 10° NNE 03:20:30 33° E 03:25:05 10° SSE
Cosmos 1842 4.4 03:19:33 10° NW 03:22:11 21° W 03:24:49 10° SW
Resurs 1-4 Rocket 2.7 03:18:25 10° N 03:23:28 45° WNW 03:28:29 10° SW
Nadezhda 3 Rocket 4.2 03:18:03 10° NNW 03:24:04 52° W 03:30:00 10° SSW
AQUA 3.9 03:19:42 10° NNE 03:24:27 87° ESE 03:29:08 10° SSW
